Chadron, NE

11:22 PM MDT on August 19, 2017 (GMT -0600)
Chadron Municipal

Weather History for KCDR - March, 2013

Change the Weather History Date:

Wednesday, March 13, 2013

  Actual Average Record
Temperature  
Mean Temperature 48 °F 35 °F  
Max Temperature 69 °F 50 °F 79 °F (2012)
Min Temperature 27 °F 20 °F -9 °F (1950)
Degree Days  
Heating Degree Days 17 30  
Month to date heating degree days 354 414  
Since 1 July heating degree days 5250 5666  
Cooling Degree Days 0 0  
Month to date cooling degree days 0 0  
Year to date cooling degree days 0 0  
Moisture  
Dew Point 22 °F    
Average Humidity 44    
Maximum Humidity 69    
Minimum Humidity 19    
Precipitation  
Precipitation 0.00 in 0.04 in 0.98 in (1929)
Month to date precipitation 0.03 0.47  
Year to date precipitation 0.88 1.44  
Sea Level Pressure  
Sea Level Pressure 30.16 in    
Wind  
Wind Speed 7 mph (West)    
Max Wind Speed 18 mph    
Max Gust Speed 23 mph    
Visibility 10 miles    
Events      
T = Trace of Precipitation, MM = Missing Value Source: NWS Daily Summary

Daily Weather History Graph

Daily Weather History Graph

Search for Another Location

Airport or City:

Trip Planner

Search our weather history database for the weather conditions in past years. The results will help you decide how hot, cold, wet, or windy it might be!

Date:

Astronomy

Mar. 13, 2013 Rise Set
Actual Time 7:07 AM MDT 6:56 PM MDT
Civil Twilight 6:39 AM MDT 7:25 PM MDT
Nautical Twilight 6:06 AM MDT 7:57 PM MDT
Astronomical Twilight 5:33 AM MDT 8:31 PM MDT
Moon 7:44 AM MDT (3/13) 9:20 PM MDT (3/13)
Length of Visible Light 12h 45m
Length of Day
11h 49m
Waxing Crescent, 4% of the Moon is Illuminated
Mar 13
Waxing Crescent
Mar 19
First Quarter
Mar 27
Full
Apr 2
Last Quarter
Apr 10
New

Hourly Weather History & Observations

Time (MDT) Temp. Windchill Dew Point Humidity Pressure Visibility Wind Dir Wind Speed Gust Speed Precip Events Conditions
12:53 AM 30.9 °F - 12.0 °F 46% 30.27 in 10.0 mi Calm Calm - N/A   Partly Cloudy
1:53 AM 28.9 °F 25.2 °F 12.0 °F 49% 30.24 in 10.0 mi NE 3.5 mph - N/A   Clear
2:53 AM 28.0 °F 24.2 °F 12.9 °F 53% 30.22 in 10.0 mi North 3.5 mph - N/A   Overcast
3:53 AM 30.0 °F - 15.1 °F 54% 30.20 in 10.0 mi Calm Calm - N/A   Overcast
4:53 AM 28.9 °F - 16.0 °F 58% 30.20 in 10.0 mi Calm Calm - N/A   Overcast
5:53 AM 28.0 °F - 16.0 °F 61% 30.21 in 10.0 mi Calm Calm - N/A   Overcast
6:53 AM 30.0 °F 26.5 °F 18.0 °F 61% 30.22 in 10.0 mi WSW 3.5 mph - N/A   Overcast
7:53 AM 30.9 °F 27.5 °F 21.0 °F 67% 30.25 in 7.0 mi SW 3.5 mph - N/A   Overcast
8:53 AM 36.0 °F 33.3 °F 24.1 °F 62% 30.26 in 7.0 mi SW 3.5 mph - N/A   Overcast
9:53 AM 45.0 °F 42.6 °F 27.0 °F 49% 30.24 in 8.0 mi WSW 4.6 mph - N/A   Clear
10:53 AM 55.9 °F - 26.1 °F 32% 30.20 in 10.0 mi WNW 17.3 mph - N/A   Clear
11:53 AM 61.0 °F - 26.1 °F 26% 30.17 in 10.0 mi WNW 11.5 mph 20.7 mph N/A   Clear
12:53 PM 64.0 °F - 24.1 °F 22% 30.16 in 10.0 mi WNW 10.4 mph - N/A   Clear
1:53 PM 64.9 °F - 25.0 °F 22% 30.13 in 10.0 mi NW 11.5 mph 18.4 mph N/A   Clear
2:53 PM 66.9 °F - 24.1 °F 20% 30.10 in 10.0 mi WNW 10.4 mph - N/A   Clear
3:53 PM 68.0 °F - 25.0 °F 20% 30.09 in 10.0 mi West 10.4 mph - N/A   Clear
4:53 PM 66.9 °F - 25.0 °F 21% 30.07 in 10.0 mi WSW 4.6 mph - N/A   Clear
5:53 PM 64.9 °F - 27.0 °F 24% 30.07 in 10.0 mi SW 10.4 mph - N/A   Clear
6:53 PM 55.0 °F - 26.1 °F 33% 30.07 in 9.0 mi SSW 9.2 mph - N/A   Clear
7:53 PM 48.9 °F - 26.1 °F 41% 30.10 in 10.0 mi SW 10.4 mph - N/A   Clear
8:53 PM 50.0 °F - 25.0 °F 38% 30.09 in 10.0 mi West 12.7 mph - N/A   Clear
9:53 PM 50.0 °F - 25.0 °F 38% 30.09 in 10.0 mi West 11.5 mph - N/A   Clear
10:53 PM 45.0 °F - 25.0 °F 46% 30.10 in 10.0 mi Calm Calm - N/A   Clear